TimePST,TemperatureF,Dew PointF,Humidity,Sea Level PressureIn,VisibilityMPH,Wind Direction,Wind SpeedMPH,Gust SpeedMPH,PrecipitationIn,Events,Conditions,WindDirDegrees,DateUTC
12:15 AM,24.8,14.0,64,30.26,10.0,WNW,3.5,-,N/A,,Clear,290,2013-02-26 08:15:00
12:35 AM,24.8,14.0,64,30.26,10.0,WSW,3.5,-,N/A,,Clear,250,2013-02-26 08:35:00
12:55 AM,24.8,14.0,64,30.27,10.0,WSW,3.5,-,N/A,,Clear,240,2013-02-26 08:55:00
1:15 AM,24.8,14.0,64,30.27,10.0,Calm,Calm,-,N/A,,Clear,0,2013-02-26 09:15:00
1:35 AM,23.0,14.0,68,30.27,10.0,SSW,3.5,-,N/A,,Clear,200,2013-02-26 09:35:00
1:55 AM,23.0,12.2,63,30.27,10.0,SSW,3.5,-,N/A,,Clear,200,2013-02-26 09:55:00
2:15 AM,21.2,12.2,68,30.27,10.0,Calm,Calm,-,N/A,,Clear,0,2013-02-26 10:15:00
2:35 AM,21.2,12.2,68,30.27,10.0,WSW,3.5,-,N/A,,Clear,240,2013-02-26 10:35:00
2:55 AM,19.4,10.4,68,30.27,10.0,SSW,4.6,-,N/A,,Clear,200,2013-02-26 10:55:00
3:15 AM,19.4,10.4,68,30.27,10.0,SSW,6.9,-,N/A,,Clear,200,2013-02-26 11:15:00
3:35 AM,23.0,12.2,63,30.27,10.0,SW,4.6,-,N/A,,Clear,220,2013-02-26 11:35:00
3:55 AM,23.0,12.2,63,30.27,10.0,SW,4.6,-,N/A,,Clear,230,2013-02-26 11:55:00
4:15 AM,23.0,12.2,63,30.27,10.0,SSW,6.9,-,N/A,,Clear,210,2013-02-26 12:15:00
4:35 AM,23.0,12.2,63,30.26,10.0,SSW,4.6,-,N/A,,Clear,200,2013-02-26 12:35:00
4:55 AM,19.4,10.4,68,30.27,10.0,South,3.5,-,N/A,,Clear,180,2013-02-26 12:55:00
5:15 AM,19.4,10.4,68,30.27,10.0,South,5.8,-,N/A,,Clear,190,2013-02-26 13:15:00
5:35 AM,19.4,10.4,68,30.27,10.0,SE,6.9,-,N/A,,Clear,140,2013-02-26 13:35:00
5:55 AM,19.4,10.4,68,30.28,10.0,SSE,6.9,-,N/A,,Clear,160,2013-02-26 13:55:00
6:15 AM,19.4,10.4,68,30.28,10.0,South,6.9,-,N/A,,Clear,170,2013-02-26 14:15:00
6:35 AM,23.0,10.4,59,30.28,10.0,South,6.9,-,N/A,,Clear,170,2013-02-26 14:35:00
6:55 AM,21.2,10.4,63,30.28,10.0,SSE,5.8,-,N/A,,Clear,150,2013-02-26 14:55:00
7:15 AM,19.4,8.6,63,30.29,10.0,SSE,6.9,-,N/A,,Clear,160,2013-02-26 15:15:00
7:35 AM,24.8,10.4,54,30.28,10.0,South,5.8,-,N/A,,Clear,170,2013-02-26 15:35:00
7:55 AM,24.8,10.4,54,30.29,10.0,SE,4.6,-,N/A,,Clear,140,2013-02-26 15:55:00
8:15 AM,26.6,12.2,55,30.28,10.0,South,4.6,-,N/A,,Clear,170,2013-02-26 16:15:00
8:35 AM,30.2,12.2,47,30.29,10.0,SSE,5.8,-,N/A,,Clear,160,2013-02-26 16:35:00
8:55 AM,32.0,14.0,48,30.29,10.0,SSW,6.9,-,N/A,,Clear,200,2013-02-26 16:55:00
9:15 AM,32.0,12.2,44,30.30,10.0,SW,9.2,-,N/A,,Clear,220,2013-02-26 17:15:00
9:35 AM,33.8,8.6,35,30.30,10.0,South,8.1,-,N/A,,Clear,170,2013-02-26 17:35:00
9:55 AM,35.6,5.0,28,30.28,10.0,SSW,10.4,-,N/A,,Clear,210,2013-02-26 17:55:00
10:15 AM,37.4,3.2,24,30.27,9.0,South,5.8,-,N/A,,Clear,190,2013-02-26 18:15:00
10:35 AM,37.4,-0.4,20,30.27,10.0,SSW,6.9,-,N/A,,Clear,200,2013-02-26 18:35:00
10:55 AM,37.4,1.4,22,30.26,10.0,SE,8.1,-,N/A,,Clear,130,2013-02-26 18:55:00
11:15 AM,39.2,-0.4,19,30.25,10.0,SSE,8.1,-,N/A,,Clear,150,2013-02-26 19:15:00
11:35 AM,39.2,-5.8,15,30.24,10.0,SE,9.2,-,N/A,,Clear,130,2013-02-26 19:35:00
12:15 PM,42.8,-7.6,12,30.23,10.0,South,4.6,-,N/A,,Clear,170,2013-02-26 20:15:00
12:35 PM,42.8,-13.0,9,30.22,10.0,Calm,Calm,-,N/A,,Clear,0,2013-02-26 20:35:00
12:55 PM,44.6,-11.2,9,30.22,10.0,West,6.9,-,N/A,,Clear,270,2013-02-26 20:55:00
1:15 PM,42.8,-2.2,15,30.22,10.0,WSW,5.8,-,N/A,,Clear,240,2013-02-26 21:15:00
1:35 PM,44.6,-2.2,14,30.21,10.0,WSW,4.6,-,N/A,,Clear,240,2013-02-26 21:35:00
1:55 PM,44.6,-2.2,14,30.21,10.0,Calm,Calm,-,N/A,,Clear,0,2013-02-26 21:55:00
2:15 PM,46.4,-2.2,13,30.21,10.0,WSW,9.2,-,N/A,,Clear,240,2013-02-26 22:15:00
2:35 PM,46.4,-2.2,13,30.20,10.0,SSW,5.8,-,N/A,,Clear,200,2013-02-26 22:35:00
2:55 PM,46.4,-2.2,13,30.20,10.0,Calm,Calm,-,N/A,,Clear,0,2013-02-26 22:55:00
3:15 PM,48.2,-2.2,12,30.19,10.0,South,8.1,-,N/A,,Clear,190,2013-02-26 23:15:00
3:35 PM,48.2,-4.0,11,30.19,10.0,South,8.1,-,N/A,,Clear,170,2013-02-26 23:35:00
3:55 PM,48.2,-4.0,11,30.18,10.0,South,4.6,-,N/A,,Clear,190,2013-02-26 23:55:00
4:15 PM,46.4,-2.2,13,30.18,10.0,SW,5.8,-,N/A,,Clear,230,2013-02-27 00:15:00
4:35 PM,46.4,-0.4,14,30.19,10.0,Calm,Calm,-,N/A,,Clear,0,2013-02-27 00:35:00
4:55 PM,46.4,-0.4,14,30.19,10.0,Calm,Calm,-,N/A,,Clear,0,2013-02-27 00:55:00
5:15 PM,46.4,-0.4,14,30.19,10.0,Calm,Calm,-,N/A,,Clear,0,2013-02-27 01:15:00
5:35 PM,46.4,-0.4,14,30.19,10.0,SW,4.6,-,N/A,,Clear,230,2013-02-27 01:35:00
5:55 PM,44.6,-0.4,15,30.19,10.0,Calm,Calm,-,N/A,,Clear,0,2013-02-27 01:55:00
6:15 PM,41.0,1.4,19,30.18,10.0,Calm,Calm,-,N/A,,Clear,0,2013-02-27 02:15:00
6:35 PM,39.2,3.2,22,30.19,10.0,Calm,Calm,-,N/A,,Clear,0,2013-02-27 02:35:00
6:55 PM,39.2,5.0,24,30.20,10.0,Calm,Calm,-,N/A,,Clear,0,2013-02-27 02:55:00
7:15 PM,37.4,5.0,26,30.20,10.0,Calm,Calm,-,N/A,,Clear,0,2013-02-27 03:15:00
7:35 PM,37.4,5.0,26,30.20,10.0,Calm,Calm,-,N/A,,Clear,0,2013-02-27 03:35:00
7:55 PM,37.4,5.0,26,30.20,10.0,Calm,Calm,-,N/A,,Clear,0,2013-02-27 03:55:00
8:15 PM,37.4,6.8,28,30.19,10.0,SSE,6.9,-,N/A,,Clear,160,2013-02-27 04:15:00
8:35 PM,39.2,6.8,26,30.20,10.0,SSW,8.1,-,N/A,,Clear,210,2013-02-27 04:35:00
8:55 PM,39.2,6.8,26,30.21,10.0,SSW,9.2,-,N/A,,Clear,200,2013-02-27 04:55:00
9:15 PM,39.2,5.0,24,30.21,10.0,SSW,11.5,-,N/A,,Clear,210,2013-02-27 05:15:00
9:35 PM,39.2,6.8,26,30.21,10.0,SSW,10.4,-,N/A,,Scattered Clouds,200,2013-02-27 05:35:00
9:55 PM,37.4,5.0,26,30.21,10.0,SSW,11.5,-,N/A,,Partly Cloudy,210,2013-02-27 05:55:00
10:15 PM,37.4,5.0,26,30.21,10.0,SSW,9.2,-,N/A,,Clear,200,2013-02-27 06:15:00
10:35 PM,35.6,6.8,30,30.21,10.0,SSW,8.1,-,N/A,,Partly Cloudy,200,2013-02-27 06:35:00
10:55 PM,33.8,6.8,32,30.21,10.0,SSW,6.9,-,N/A,,Partly Cloudy,210,2013-02-27 06:55:00
11:15 PM,35.6,5.0,28,30.21,10.0,SSW,8.1,-,N/A,,Clear,210,2013-02-27 07:15:00
11:35 PM,35.6,3.2,26,30.21,10.0,SSW,6.9,-,N/A,,Clear,200,2013-02-27 07:35:00
11:55 PM,32.0,5.0,32,30.21,10.0,SSE,3.5,-,N/A,,Clear,160,2013-02-27 07:55:00